Rhinelander, WI

7:15 AM CDT on July 22, 2017 (GMT -0500)
Rhinelander-Oneida County

Weather History for KRHI - December, 2012

Change the Weather History Date:

Monday, December 17, 2012

  Actual Average Record
Temperature  
Mean Temperature 26 °F 16 °F  
Max Temperature 29 °F 25 °F 42 °F (1997)
Min Temperature 22 °F 8 °F -25 °F (1983)
Degree Days  
Heating Degree Days 39 49  
Month to date heating degree days 630 784  
Since 1 July heating degree days 2750 2918  
Cooling Degree Days 0 0  
Month to date cooling degree days 0 0  
Year to date cooling degree days 373 261  
Moisture  
Dew Point 21 °F    
Average Humidity 83    
Maximum Humidity 92    
Minimum Humidity 74    
Precipitation  
Precipitation T in 0.04 in 0.46 in (1915)
Month to date precipitation 0.50 0.84  
Year to date precipitation 29.74 30.80  
Snow  
Snow T in - 7.00 in (1908)
Month to date snowfall 5.0  
Since 1 July snowfall 10.5  
Snow Depth T in    
Sea Level Pressure  
Sea Level Pressure 29.71 in    
Wind  
Wind Speed 5 mph (WNW)    
Max Wind Speed 12 mph    
Max Gust Speed 15 mph    
Visibility 10 miles    
Events      
T = Trace of Precipitation, MM = Missing Value Source: NWS Daily Summary

Daily Weather History Graph

Daily Weather History Graph

Search for Another Location

Airport or City:

Trip Planner

Search our weather history database for the weather conditions in past years. The results will help you decide how hot, cold, wet, or windy it might be!

Date:

Astronomy

Dec. 17, 2012 Rise Set
Actual Time 7:33 AM CST 4:15 PM CST
Civil Twilight 6:59 AM CST 4:49 PM CST
Nautical Twilight 6:21 AM CST 5:27 PM CST
Astronomical Twilight 5:45 AM CST 6:03 PM CST
Moon 10:29 AM CST (12/17) 9:51 PM CST (12/17)
Length of Visible Light 9h 50m
Length of Day
8h 41m
Waxing Crescent, 25% of the Moon is Illuminated
Dec 17
Waxing Crescent
Dec 19
First Quarter
Dec 28
Full
Jan 4
Last Quarter
Jan 11
New

Hourly Weather History & Observations

Time (CST) Temp. Windchill Dew Point Humidity Pressure Visibility Wind Dir Wind Speed Gust Speed Precip Events Conditions
12:07 AM 28.4 °F 20.4 °F 26.6 °F 93% 29.62 in 8.0 mi WNW 8.1 mph - N/A   Overcast
12:27 AM 28.4 °F 19.7 °F 26.6 °F 93% 29.63 in 10.0 mi West 9.2 mph - N/A   Overcast
12:53 AM 28.0 °F 21.7 °F 25.0 °F 88% 29.68 in 10.0 mi West 5.8 mph - N/A   Overcast
1:29 AM 26.6 °F 20.0 °F 24.8 °F 93% 29.64 in 7.0 mi West 5.8 mph - N/A   Overcast
1:53 AM 27.0 °F 18.7 °F 24.1 °F 89% 29.70 in 9.0 mi West 8.1 mph - N/A   Overcast
2:11 AM 26.6 °F 19.1 °F 24.8 °F 93% 29.64 in 10.0 mi West 6.9 mph - N/A   Overcast
2:53 AM 26.1 °F 18.4 °F 23.0 °F 88% 29.71 in 9.0 mi WNW 6.9 mph - N/A   Overcast
3:53 AM 25.0 °F 15.5 °F 23.0 °F 92% 29.70 in 10.0 mi WNW 9.2 mph - N/A   Overcast
4:53 AM 24.1 °F 14.4 °F 21.9 °F 91% 29.71 in 10.0 mi WNW 9.2 mph - N/A   Overcast
5:53 AM 24.1 °F 15.2 °F 21.9 °F 91% 29.72 in 9.0 mi West 8.1 mph - N/A   Overcast
6:36 AM 24.8 °F 16.9 °F 21.2 °F 86% 29.66 in 10.0 mi West 6.9 mph - N/A   Overcast
6:53 AM 24.1 °F 17.0 °F 19.9 °F 84% 29.73 in 10.0 mi WNW 5.8 mph - N/A   Overcast
7:53 AM 23.0 °F 18.4 °F 19.0 °F 85% 29.74 in 10.0 mi WNW 3.5 mph - N/A   Overcast
8:53 AM 23.0 °F - 19.0 °F 85% 29.74 in 10.0 mi Calm Calm - N/A   Overcast
9:53 AM 24.1 °F 19.7 °F 18.0 °F 77% 29.74 in 10.0 mi Variable 3.5 mph - N/A   Overcast
10:53 AM 24.1 °F 18.2 °F 19.0 °F 81% 29.73 in 10.0 mi NW 4.6 mph - N/A   Overcast
11:53 AM 24.1 °F 18.2 °F 19.0 °F 81% 29.71 in 10.0 mi NW 4.6 mph - N/A   Overcast
12:53 PM 24.1 °F 17.0 °F 19.0 °F 81% 29.71 in 10.0 mi NNW 5.8 mph - N/A   Overcast
1:53 PM 24.1 °F 16.0 °F 19.0 °F 81% 29.71 in 10.0 mi West 6.9 mph - N/A   Overcast
2:53 PM 24.1 °F 19.7 °F 19.0 °F 81% 29.71 in 10.0 mi NW 3.5 mph - N/A   Overcast
3:53 PM 23.0 °F 17.0 °F 18.0 °F 81% 29.72 in 10.0 mi North 4.6 mph - N/A   Overcast
6:53 PM 23.0 °F - 18.0 °F 81% 29.74 in 10.0 mi Calm Calm - N/A   Overcast
7:53 PM 23.0 °F - 18.0 °F 81% 29.75 in 10.0 mi Calm Calm - N/A   Overcast
8:53 PM 23.0 °F - 18.0 °F 81% 29.75 in 10.0 mi Calm Calm - N/A   Overcast
9:53 PM 23.0 °F 18.4 °F 18.0 °F 81% 29.75 in 10.0 mi North 3.5 mph - N/A   Overcast
10:53 PM 21.9 °F 17.2 °F 18.0 °F 85% 29.74 in 10.0 mi NNW 3.5 mph - N/A   Overcast
11:00 PM 23.0 °F - 19.4 °F 86% 29.67 in 10.0 mi Calm Calm - N/A   Overcast
11:53 PM 23.0 °F 18.4 °F 19.0 °F 85% 29.74 in 10.0 mi WSW 3.5 mph - N/A   Overcast